Location: C�mpuri de-Sus
(45.9500°N, 22.5500°E)
Time: 11:12:41
(UTC+00:00)

Cosmos 2278 Rocket - Pass Details

Date: 01 June 2022
Orbit: 840 x 846 km, 71.0° (Epoch: 01 July)

Event Time Altitude Azimuth Distance (km) Brightness Sun altitude
Rises 20:27:56 0° 339° (NNW) 3,418 7.1 -16.7°
Reaches altitude 10° 20:30:46 10° 351° (N) 2,478 5.8 -16.9°
Maximum altitude 20:35:37 28° 50° (NE) 1,544 3.7 -17.3°
Enters shadow 20:39:34 14° 102° (ESE) 2,208 4.0 -17.6°
